Temperature
17 17 17 17 18 17 17 18 18 18 18 18 18 18 18 18 18 18 18 18 18 18 18 18 18 18 18 18 18 18 18 18 18 18 18 18 18 18 18 18 18 18 18
17 17 17 17 17 17 17 17 17 18 18 18 18 18 18 18 18 18 18 18 18 18 18 18 18 18 18 18 18 18 18 18 18 18 18 18 18 18 18 18 18 18 18
17 17 17 17 17 17 17 17 17 17 17 18 18 18 18 18 18 18 18 18 18 18 18 18 18 18 18 18 18 18 18 18 18 18 18 17 18 18 18 18 18 18 18
17 17 17 17 17 17 17 17 17 17 17 17 17 17 17 17 17 17 17 17 17 17 17 17 17 17 17 18 18 18 18 18 18 17 17 17 17 18 18 18 18 18 18
17 17 17 17 17 17 17 17 17 17 17 17 17 17 17 17 17 17 17 17 17 17 17 17 17 17 17 17 17 18 18 18 17 17 17 17 17 17 17 17 17 17 17
17 17 17 17 17 17 17 17 17 17 17 17 17 17 17 17 17 17 17 17 17 17 17 17 17 17 17 17 17 17 17 17 17 17 17 17 17 17 17 17 17 17 17
17 17 17 17 17 17 17 17 17 17 17 17 17 17 17 17 17 17 17 17 17 17 17 17 17 17 17 17 17 17 17 17 16 16 16 16 17 17 17 17 17 17 17
17 17 17 17 17 17 17 17 17 17 17 17 17 17 17 17 17 17 17 17 17 17 17 17 17 17 17 17 17 17 17 17 16 16 16 16 17 17 17 17 17 17 17
17 17 17 17 17 17 17 17 17 17 17 17 17 17 17 17 17 17 17 17 17 17 17 17 17 17 17 17 17 17 17 17 16 16 16 16 16 17 17 17 17 17 17
17 17 17 17 16 16 17 17 17 17 17 17 17 17 17 17 17 17 16 16 16 16 16 16 16 17 17 17 17 17 17 16 16 16 16 16 16 16 16 16 16 16 16
17 17 17 17 17 16 16 17 16 17 17 16 16 16 16 16 16 16 16 16 16 16 16 16 16 16 16 16 17 16 16 16 16 16 16 16 16 16 16 16 16 16 16
17 17 17 17 17 16 16 16 16 16 16 16 16 16 16 16 16 16 16 16 16 16 16 16 16 16 16 16 16 16 16 16 16 15 15 16 16 16 16 16 16 16 16
17 17 17 17 17 16 16 16 16 16 16 16 16 16 16 16 16 16 16 16 16 16 16 16 16 16 16 16 16 16 16 15 15 15 15 16 16 16 16 16 16 16 16
17 17 17 17 17 16 16 16 16 16 16 16 16 16 16 16 16 16 16 15 15 15 15 15 15 16 15 16 16 16 15 15 15 15 15 15 15 15 15 16 16 16 16
17 17 17 17 17 17 16 16 16 16 16 16 16 16 16 16 16 16 15 15 15 15 15 15 15 15 15 15 15 15 15 15 15 15 15 15 15 15 15 15 15 15 15
18 18 17 17 17 17 16 16 16 16 16 16 15 16 15 15 15 15 15 15 15 15 15 15 15 15 15 15 15 15 15 15 15 15 14 15 15 15 15 15 15 15 15
18 18 17 17 17 16 16 16 16 16 16 16 15 15 15 15 15 15 15 15 15 15 15 15 15 15 15 15 15 15 15 15 15 15 14 14 14 15 15 15 15 15 15
18 18 17 17 17 16 16 16 16 16 15 15 15 15 15 15 15 15 15 15 15 15 15 15 15 15 15 15 15 15 15 15 15 14 14 14 14 14 14 15 15 14 14
18 18 17 17 17 17 16 16 16 16 15 15 15 15 15 15 15 15 15 15 15 15 15 15 15 15 15 15 14 15 14 14 14 14 14 14 14 14 14 14 14 14 14
18 18 17 17 17 17 16 16 16 16 16 15 15 15 15 15 15 15 15 15 14 14 14 14 14 14 14 14 14 14 14 14 14 14 14 14 14 14 14 14 14 14 14
18 18 17 17 17 17 16 16 16 16 15 15 15 15 15 15 15 15 15 15 14 14 14 14 14 14 14 14 14 14 14 14 14 14 14 14 14 14 14 13 13 13 13
18 18 17 17 17 17 17 16 16 16 15 15 15 15 15 15 15 15 15 14 14 14 14 14 14 14 14 14 14 15 15 15 14 14 14 14 14 13 13 13 13 13 13
17 17 17 17 17 17 17 16 16 16 15 15 15 15 15 15 15 15 15 14 14 14 14 14 14 14 14 14 14 14 15 16 14 14 14 13 13 13 13 13 13 13 13
17 17 17 17 17 17 16 16 16 16 15 15 15 15 15 15 15 15 14 14 14 14 14 14 14 14 14 14 14 14 14 14 14 14 14 13 13 13 13 13 13 13 13
17 17 17 17 17 17 17 16 16 15 15 15 15 15 15 15 15 15 14 14 14 14 14 14 14 14 14 13 13 13 13 13 14 14 14 14 13 13 13 13 13 12 13
17 17 17 17 17 17 16 16 16 15 15 15 15 15 15 15 15 14 14 14 14 14 14 14 14 13 13 13 13 13 13 13 14 14 14 14 13 13 13 13 12 12 12
Wind_Speed
3 4 6 5 7 7 8 8 9 10 10 11 11 11 11 11 11 11 11 11 12 11 11 11 11 11 11 12 12 11 11 11 10 10 10 10 9 9 8 7 6 9 11
3 4 6 7 7 8 8 9 10 10 10 11 11 11 11 11 11 11 11 11 11 11 11 11 11 11 11 11 11 11 11 10 10 10 9 9 9 9 9 8 7 9 11
5 5 6 7 8 8 9 10 10 10 10 11 11 10 10 11 11 11 11 11 11 11 11 10 11 11 11 11 11 11 11 10 10 8 5 7 9 10 9 9 9 10 10
5 5 7 8 8 9 9 10 10 11 11 10 10 10 10 10 11 11 11 11 11 11 11 11 11 10 11 11 12 11 11 11 9 5 6 8 9 11 9 9 9 9 9
6 6 8 7 8 8 9 10 10 10 10 10 10 11 11 11 11 10 11 11 11 11 11 11 10 11 11 12 12 11 11 10 8 7 8 8 9 11 10 10 9 9 9
6 7 9 7 8 8 9 9 9 9 9 10 10 11 11 11 11 11 11 10 10 10 10 10 10 11 11 12 11 11 10 8 6 8 8 8 9 11 10 10 9 9 9
6 7 9 8 8 8 9 8 9 9 9 10 10 10 11 11 11 11 11 11 10 10 10 10 10 10 11 11 11 11 9 7 7 7 7 8 10 11 10 10 10 9 9
6 6 8 9 8 8 8 9 9 8 9 10 10 11 11 11 11 11 11 11 11 11 11 10 10 10 11 11 11 10 9 6 7 8 8 9 11 10 10 10 9 9 8
6 6 6 7 8 8 9 9 9 9 10 10 10 11 11 11 11 11 11 11 12 12 12 11 11 11 11 11 11 10 9 7 7 7 8 9 10 10 10 10 9 9 8
5 5 5 6 6 6 8 9 9 10 10 10 10 10 9 10 10 10 11 12 12 13 13 13 12 12 11 11 11 9 6 4 7 8 7 9 10 9 10 10 10 10 9
5 5 5 5 5 5 6 8 8 9 8 8 9 8 6 7 8 9 12 12 12 13 13 12 12 11 10 11 9 6 4 6 7 7 9 11 10 10 10 10 10 10 10
5 5 4 4 5 5 5 6 6 7 6 6 7 7 6 7 7 8 11 11 11 11 11 10 9 7 5 7 7 3 6 7 6 7 10 12 11 11 10 11 11 11 12
5 5 4 4 5 5 5 5 5 5 5 6 6 7 6 6 6 6 6 7 7 7 7 7 6 7 7 7 6 6 7 6 6 7 10 12 11 10 10 11 11 11 12
5 4 4 4 4 5 5 5 5 4 4 4 4 6 5 4 5 5 5 5 5 5 5 5 5 6 7 7 7 7 7 6 6 7 10 12 11 11 11 11 11 11 11
5 4 4 3 4 4 5 4 4 4 4 4 4 4 5 4 4 5 5 4 4 5 4 4 4 5 5 6 6 6 6 7 7 7 8 12 11 11 10 10 10 10 10
5 5 4 3 3 3 3 3 3 3 3 3 3 4 5 4 4 4 5 4 4 4 4 4 5 4 4 5 5 6 6 6 6 6 6 9 11 11 10 9 9 9 9
5 4 5 4 4 3 3 3 3 2 3 3 3 3 4 4 4 3 3 4 4 4 4 4 5 4 4 4 4 5 5 5 5 6 5 5 7 10 10 9 9 9 9
5 4 5 5 4 4 3 3 2 2 2 2 3 3 3 3 4 3 3 3 3 3 3 3 3 3 3 3 3 3 4 4 4 5 5 5 5 5 8 10 8 8 8
5 5 5 5 5 5 4 3 2 2 2 2 2 2 2 3 3 3 2 2 3 2 2 2 2 2 2 2 3 2 3 3 3 3 4 5 5 5 5 7 8 8 7
5 5 5 5 5 5 4 3 3 2 2 2 2 2 2 1 2 2 2 2 2 2 1 2 2 1 1 1 2 2 2 2 2 3 3 3 4 4 4 4 4 6 7
6 6 5 6 5 5 4 3 3 3 2 2 2 2 2 2 2 2 1 1 1 1 1 1 1 1 1 1 1 2 2 2 2 2 2 2 3 3 3 3 3 3 4
7 6 6 6 6 5 3 3 2 2 2 2 2 2 2 2 2 1 2 2 2 1 2 2 1 1 1 1 1 1 1 2 2 2 2 1 2 2 2 3 3 3 3
7 7 6 6 6 5 4 3 3 2 2 2 2 2 2 2 2 2 2 2 2 2 2 2 2 2 2 1 1 2 1 1 1 2 1 1 1 1 1 1 2 3 3
8 7 7 6 6 5 5 4 5 4 3 3 2 2 3 3 3 2 2 3 3 2 2 3 3 2 2 2 1 2 2 1 1 1 2 2 1 1 0 0 1 1 2
7 7 6 6 6 5 5 5 5 4 3 2 2 3 3 3 3 3 3 3 3 3 3 3 3 3 3 2 2 1 1 1 3 2 1 1 1 1 0 1 0 0 1
7 6 6 6 6 5 5 6 6 5 4 4 4 3 3 3 3 4 4 4 3 3 3 4 4 4 3 3 3 2 2 2 2 2 2 2 1 0 1 1 1 0 0
Wind_Direction
51 52 53 61 72 68 69 71 74 72 74 78 81 85 86 86 87 88 88 87 85 83 83 79 76 78 79 78 77 76 74 75 79 84 87 90 92 95 95 96 103 102 98
71 66 70 71 74 72 75 76 78 74 73 77 80 83 86 88 89 89 87 86 85 84 80 79 77 78 78 77 77 75 74 75 78 81 86 93 90 93 92 88 83 93 100
82 76 88 80 79 77 76 78 78 78 76 78 81 84 86 88 91 89 87 87 85 82 81 80 78 78 78 77 77 75 73 75 76 80 88 87 89 87 87 90 98 102 103
84 80 80 80 79 80 78 78 79 82 81 80 81 83 84 87 89 88 88 88 86 83 81 80 79 79 78 77 76 73 75 75 73 70 78 76 80 81 83 89 98 103 103
87 80 82 81 83 83 83 83 82 85 86 84 83 82 82 84 85 87 86 86 86 85 82 78 76 78 78 79 77 74 73 75 74 67 69 72 74 79 80 81 85 95 96
91 84 86 83 85 85 84 85 86 86 85 84 83 82 81 81 83 84 83 86 88 86 82 79 77 76 77 77 76 75 74 72 75 70 71 72 74 77 77 80 84 88 92
92 87 87 84 86 86 82 81 84 86 82 82 82 82 83 82 81 82 83 84 87 86 81 79 78 76 77 76 75 74 72 65 71 72 69 70 71 72 74 80 81 83 84
93 91 95 97 90 87 85 81 79 82 80 80 81 83 84 83 82 82 83 82 82 81 78 77 78 77 76 76 75 74 65 45 78 73 70 70 69 72 75 79 80 83 84
95 91 89 97 104 106 92 86 85 84 81 82 82 83 85 85 82 82 81 79 79 77 76 76 77 77 76 75 73 71 63 45 64 68 70 69 69 69 73 77 82 82 81
99 94 90 90 93 103 103 94 89 86 83 84 84 85 92 99 93 87 87 81 78 77 76 75 75 75 76 75 72 70 65 67 61 66 62 68 68 69 71 74 77 78 77
103 96 90 89 88 88 96 107 107 101 94 104 99 95 100 90 90 92 79 81 79 79 78 78 77 78 82 84 75 68 62 67 67 62 60 61 65 69 72 75 75 74 73
115 103 96 91 88 87 95 108 105 99 97 90 90 91 86 83 82 87 93 86 85 88 88 82 82 90 82 83 89 90 72 71 67 65 61 58 62 65 73 78 77 76 73
121 115 103 96 90 88 97 102 101 97 95 87 86 91 89 91 95 92 98 102 97 95 86 88 88 73 71 69 68 72 67 63 65 65 60 57 60 65 73 80 78 77 75
134 124 114 105 97 93 93 97 103 104 97 89 89 92 90 85 86 87 89 83 82 80 75 72 73 77 75 75 72 73 74 68 64 68 61 56 58 64 72 77 78 76 77
151 147 128 122 103 100 99 103 108 105 100 97 94 98 98 95 91 93 89 81 77 79 84 78 75 71 71 69 66 65 67 71 72 72 72 63 58 60 69 75 76 76 77
165 156 144 143 126 119 116 116 107 103 102 96 97 101 100 100 96 91 87 81 75 74 76 81 79 78 75 70 68 66 63 68 71 76 79 78 68 60 61 68 71 71 72
172 166 153 156 153 142 124 108 109 107 103 99 97 102 103 98 96 94 86 85 82 83 81 76 77 75 78 81 77 70 68 64 69 71 71 71 79 75 64 63 68 69 68
175 174 163 166 169 159 145 132 123 113 105 110 107 103 107 107 101 93 89 86 85 81 79 77 75 78 79 77 75 70 76 79 75 73 77 77 70 73 76 65 63 65 67
182 179 175 173 173 166 156 147 135 126 122 123 118 114 111 110 114 106 94 96 99 88 78 80 72 71 81 82 82 75 74 78 79 79 77 74 76 76 81 88 76 63 57
183 180 174 172 176 164 164 160 145 136 135 132 126 131 118 129 130 116 130 129 119 115 96 94 91 81 81 90 92 88 89 95 89 73 70 74 74 74 69 72 87 86 72
183 181 173 176 173 171 172 180 172 166 157 147 148 143 141 156 159 146 168 151 151 155 148 140 129 132 133 118 145 123 121 102 92 97 79 76 80 71 72 67 61 68 91
187 186 182 180 176 176 182 187 185 175 176 152 161 163 168 182 194 194 205 198 190 186 191 180 193 229 178 231 281 257 180 152 133 110 114 92 82 83 62 60 61 63 53
194 192 189 184 180 177 177 175 173 175 189 184 184 181 191 199 205 223 225 220 214 217 206 209 212 221 231 244 281 300 295 344 121 154 124 124 103 104 103 74 63 62 61
197 195 193 185 183 180 177 187 195 203 211 215 205 198 200 204 207 214 222 225 218 222 214 215 218 224 233 240 226 284 306 329 285 208 174 150 131 148 79 79 55 68 70
193 192 191 185 185 186 193 200 215 223 223 215 204 201 206 203 211 216 223 226 225 222 224 222 223 229 226 244 241 238 242 248 267 278 268 224 189 170 322 313 284 74 76
190 187 188 191 190 190 200 208 215 220 220 213 215 216 219 214 218 218 220 221 224 227 227 226 223 223 238 240 248 247 248 253 259 255 263 257 265 276 253 257 258 168 120
Height
1529 1527 1525 1525 1524 1524 1524 1523 1523 1522 1522 1521 1521 1520 1520 1520 1520 1520 1520 1520 1520 1520 1520 1520 1520 1520 1520 1519 1519 1519 1518 1518 1517 1518 1518 1518 1518 1518 1518 1519 1519 1520 1520
1529 1528 1527 1526 1525 1525 1525 1525 1524 1524 1523 1523 1523 1522 1522 1522 1522 1522 1522 1522 1522 1522 1522 1522 1522 1522 1522 1522 1521 1521 1520 1520 1520 1520 1520 1520 1520 1520 1520 1520 1521 1521 1521
1530 1529 1528 1527 1527 1526 1526 1526 1526 1526 1525 1525 1525 1525 1525 1524 1524 1524 1524 1524 1524 1524 1524 1524 1524 1524 1524 1524 1523 1523 1522 1522 1522 1522 1522 1522 1520 1521 1522 1522 1522 1523 1523
1531 1530 1530 1528 1528 1528 1528 1528 1527 1527 1527 1527 1527 1527 1527 1526 1526 1526 1526 1526 1526 1526 1526 1526 1526 1526 1526 1526 1525 1525 1524 1524 1524 1524 1525 1525 1524 1523 1523 1524 1524 1524 1525
1532 1532 1530 1530 1530 1529 1529 1529 1529 1529 1529 1529 1529 1529 1528 1528 1528 1528 1528 1528 1528 1528 1528 1528 1528 1528 1528 1528 1527 1527 1526 1526 1526 1526 1526 1526 1526 1525 1525 1525 1525 1526 1526
1533 1533 1532 1531 1531 1531 1531 1531 1531 1531 1531 1531 1531 1531 1530 1530 1530 1530 1530 1530 1530 1530 1530 1530 1530 1530 1530 1530 1529 1529 1529 1529 1529 1529 1528 1528 1528 1527 1527 1527 1527 1527 1527
1535 1534 1534 1533 1532 1532 1532 1532 1532 1532 1532 1533 1532 1532 1532 1532 1532 1532 1532 1532 1532 1532 1532 1532 1532 1532 1532 1532 1531 1531 1531 1531 1531 1531 1530 1530 1529 1529 1529 1529 1529 1529 1528
1536 1535 1535 1534 1534 1533 1533 1533 1533 1534 1534 1534 1534 1534 1534 1534 1534 1534 1534 1534 1534 1534 1534 1534 1534 1533 1533 1533 1533 1533 1533 1533 1534 1533 1533 1532 1531 1531 1531 1530 1530 1530 1530
1537 1536 1536 1536 1535 1535 1534 1534 1534 1535 1535 1535 1535 1535 1536 1535 1535 1536 1536 1536 1536 1536 1535 1535 1535 1535 1535 1535 1535 1535 1535 1535 1535 1535 1535 1534 1533 1533 1532 1532 1531 1531 1531
1538 1538 1537 1537 1537 1536 1535 1534 1535 1536 1536 1537 1537 1537 1537 1537 1537 1537 1537 1537 1537 1537 1537 1537 1537 1537 1537 1537 1537 1536 1536 1537 1537 1537 1537 1536 1535 1535 1534 1534 1533 1533 1533
1538 1538 1538 1538 1537 1536 1535 1534 1536 1537 1537 1538 1539 1539 1539 1540 1540 1540 1539 1539 1539 1539 1539 1539 1539 1539 1539 1539 1538 1538 1538 1539 1539 1539 1538 1537 1537 1536 1536 1535 1535 1534 1534
1539 1539 1539 1539 1538 1536 1534 1535 1537 1539 1539 1540 1541 1541 1541 1541 1541 1541 1541 1541 1541 1541 1541 1541 1541 1541 1541 1541 1541 1540 1541 1541 1541 1541 1540 1539 1538 1538 1537 1537 1536 1536 1535
1540 1540 1540 1540 1539 1538 1536 1537 1539 1540 1541 1542 1542 1542 1543 1543 1543 1543 1543 1544 1543 1543 1543 1543 1543 1543 1543 1543 1543 1543 1542 1543 1543 1542 1541 1540 1540 1539 1538 1538 1538 1537 1537
1541 1541 1541 1541 1541 1540 1539 1540 1541 1542 1543 1543 1544 1544 1544 1544 1545 1545 1545 1545 1545 1545 1544 1545 1545 1545 1545 1545 1545 1545 1544 1544 1544 1543 1542 1542 1541 1541 1540 1540 1539 1539 1538
1541 1542 1542 1542 1542 1542 1542 1542 1543 1543 1544 1545 1544 1545 1545 1546 1546 1546 1546 1546 1546 1546 1546 1546 1546 1546 1546 1546 1546 1546 1546 1545 1545 1545 1544 1543 1542 1542 1541 1541 1541 1540 1540
1541 1542 1542 1543 1543 1543 1544 1544 1544 1545 1545 1546 1546 1546 1547 1547 1547 1547 1547 1547 1547 1547 1547 1547 1547 1547 1547 1547 1547 1546 1546 1546 1546 1546 1545 1544 1544 1543 1543 1542 1542 1541 1541
1542 1542 1543 1543 1543 1544 1545 1545 1545 1546 1546 1547 1547 1547 1548 1548 1548 1548 1548 1548 1548 1547 1548 1548 1548 1547 1547 1547 1547 1547 1547 1546 1546 1546 1546 1546 1545 1544 1543 1543 1543 1542 1542
1541 1542 1543 1543 1544 1544 1545 1545 1546 1546 1547 1547 1547 1548 1548 1549 1549 1548 1548 1549 1548 1548 1548 1548 1548 1548 1548 1548 1548 1548 1547 1547 1547 1547 1547 1546 1546 1545 1544 1543 1543 1543 1543
1540 1542 1542 1543 1544 1544 1545 1546 1546 1547 1547 1547 1548 1548 1549 1549 1549 1549 1549 1549 1549 1549 1549 1549 1549 1548 1548 1548 1548 1547 1547 1547 1547 1547 1547 1547 1546 1546 1545 1544 1544 1543 1543
1539 1541 1542 1542 1543 1544 1545 1546 1546 1547 1547 1547 1548 1548 1549 1549 1550 1550 1549 1550 1550 1549 1549 1549 1548 1548 1548 1548 1548 1548 1547 1547 1547 1547 1547 1547 1547 1546 1545 1545 1544 1544 1543
1538 1539 1541 1542 1543 1543 1544 1545 1546 1546 1547 1547 1547 1548 1548 1549 1549 1549 1549 1550 1549 1549 1549 1549 1548 1548 1548 1548 1548 1548 1548 1548 1547 1547 1547 1547 1546 1546 1546 1545 1545 1544 1544
1536 1538 1539 1540 1542 1543 1543 1544 1545 1546 1546 1547 1547 1547 1548 1548 1548 1549 1549 1549 1549 1548 1548 1548 1548 1548 1548 1547 1548 1548 1548 1549 1547 1547 1546 1546 1547 1546 1545 1545 1545 1544 1544
1534 1536 1537 1539 1540 1541 1542 1543 1544 1544 1545 1546 1546 1546 1546 1547 1547 1548 1548 1548 1548 1548 1548 1547 1547 1547 1547 1547 1547 1548 1548 1547 1547 1547 1546 1546 1546 1545 1545 1545 1544 1544 1543
1532 1534 1536 1537 1539 1540 1541 1541 1542 1543 1544 1544 1545 1545 1545 1545 1546 1546 1546 1546 1547 1547 1546 1546 1546 1546 1546 1546 1546 1546 1547 1547 1547 1547 1547 1546 1545 1545 1545 1544 1544 1543 1543
1530 1532 1534 1535 1537 1538 1539 1540 1541 1541 1542 1542 1542 1543 1543 1544 1544 1544 1544 1545 1545 1545 1545 1545 1545 1545 1545 1545 1545 1545 1545 1545 1545 1546 1545 1545 1545 1544 1544 1543 1543 1542 1542
1528 1529 1531 1533 1535 1536 1537 1538 1539 1539 1540 1540 1540 1541 1541 1542 1542 1542 1542 1542 1543 1543 1543 1543 1543 1543 1544 1544 1544 1544 1544 1544 1544 1544 1544 1544 1544 1544 1543 1542 1542 1541 1541